This is the latest recevied weather packets stored in our database for station/object W5CRT. If no packets are shown the sender has not sent any weather packets the latest 10 day(s).
| Time | Temp. | Humidity | Pressure | Rain* | Wind** | Luminosity | Snow |
|---|---|---|---|---|---|---|---|
| 1778093359 | 13.33° C | 84% | 1012.5 hPa | 0 mm | - | 119 W/m² | - |
| 1778093056 | 13.33° C | 84% | 1012.3 hPa | 0 mm | - | 181 W/m² | - |
| 1778092754 | 13.33° C | 85% | 1011.8 hPa | 0 mm | - | 182 W/m² | - |
| 1778092448 | 13.33° C | 84% | 1011.5 hPa | 0 mm | - | 204 W/m² | - |
| 1778092146 | 13.33° C | 85% | 1011.3 hPa | 0 mm | - | 163 W/m² | - |
| 1778091843 | 13.33° C | 85% | 1010.9 hPa | 0 mm | - | 183 W/m² | - |
| 1778091540 | 13.33° C | 86% | 1010.6 hPa | 0 mm | - | 233 W/m² | - |
| 1778091238 | 13.33° C | 85% | 1010.8 hPa | 0 mm | - | 237 W/m² | - |
| 1778090935 | 13.33° C | 86% | 1010.9 hPa | 0 mm | - | 259 W/m² | - |
| 1778090631 | 13.33° C | 86% | 1011.4 hPa | 0 mm | - | 257 W/m² | - |
| 1778090328 | 12.78° C | 86% | 1011.6 hPa | 0 mm | - | 227 W/m² | - |
| 1778090024 | 12.78° C | 86% | 1011.6 hPa | 0 mm | - | 337 W/m² | - |
| 1778089722 | 12.78° C | 87% | 1011.8 hPa | 0 mm | - | 208 W/m² | - |
| 1778089419 | 12.78° C | 87% | 1012 hPa | 0 mm | - | 194 W/m² | - |
| 1778089117 | 12.78° C | 88% | 1012.3 hPa | 0 mm | - | 192 W/m² | - |
| 1778088813 | 12.78° C | 88% | 1012.5 hPa | 0 mm | - | 161 W/m² | - |
| 1778088510 | 12.78° C | 87% | 1012.8 hPa | 0 mm | - | 185 W/m² | - |
| 1778088207 | 12.78° C | 88% | 1012.5 hPa | 0 mm | - | 226 W/m² | - |
| 1778087904 | 12.78° C | 88% | 1013 hPa | 0 mm | - | 187 W/m² | - |
| 1778087601 | 12.78° C | 89% | 1012.1 hPa | 0 mm | - | 155 W/m² | - |
| 1778087299 | 12.78° C | 89% | 1012.2 hPa | 0 mm | - | 129 W/m² | - |
| 1778086995 | 12.78° C | 88% | 1012.5 hPa | 0 mm | - | 130 W/m² | - |
| 1778086694 | 12.22° C | 88% | 1012.5 hPa | 0 mm | - | 151 W/m² | - |
| 1778086391 | 12.22° C | 88% | 1012.8 hPa | 0 mm | - | 115 W/m² | - |
| 1778086088 | 12.78° C | 89% | 1012.7 hPa | 0 mm | - | 151 W/m² | - |
* Rain latest hour (hover to see other rain measurements)
** Current wind speed in m/s (hover to see current wind gust speed)